This demonstration page uses our WeatherBlox Daily Observations layout. Learn more.

Left ArrowRight Arrow

Hourly Observations for February 29, 2020

Temp ( °F °C ) Dew Point ( °F °C ) Humidity (%) Winds ( mph kmh ) Pressure ( in mb ) Visibility ( mi km ) Precip ( " mm )
12:53 am 00:53 Clear 47 8.3 39 3.9 74 74 Calm 30.01 1016 10 16 0.00 0.00
1:53 am 01:53 Clear 44 6.7 38 3.3 79 79 Calm 30.00 1016 10 16 0.00 0.00
2:53 am 02:53 Clear 43 6.1 38 3.3 82 82 NNE 3 6 29.99 1016 10 16 0.00 0.00
3:53 am 03:53 Clear 41 5 37 2.8 86 86 Calm 29.99 1016 10 16 0.00 0.00
4:53 am 04:53 Clear 43 6.1 36 2.2 76 76 VRB 3 6 30.00 1016 10 16 0.00 0.00
5:53 am 05:53 Clear 39 3.9 35 1.7 86 86 Calm 30.00 1016 10 16 0.00 0.00
6:53 am 06:53 Sunny 38 3.3 34 1.1 86 86 Calm 29.99 1016 9 14 0.00 0.00
7:53 am 07:53 Sunny 41 5 36 2.2 82 82 NNE 3 6 30.01 1016 8 13 0.00 0.00
8:53 am 08:53 Sunny 51 10.6 40 4.4 66 66 NNE 3 6 30.01 1016 10 16 0.00 0.00
9:53 am 09:53 Sunny 58 14.4 36 2.2 44 44 VRB 6 9 30.01 1016 10 16 0.00 0.00
10:53 am 10:53 Sunny 60 15.6 30 -1.1 32 32 NNW 9 15 30.00 1016 10 16 0.00 0.00
11:53 am 11:53 Sunny 62 16.7 30 -1.1 30 30 VRB 3 6 29.98 1015 10 16 0.00 0.00
12:53 pm 12:53 Sunny 63 17.2 28 -2.2 27 27 VRB 7 11 29.95 1014 10 16 0.00 0.00
1:53 pm 13:53 Mostly Sunny 62 16.7 26 -3.3 25 25 NW 6 9 29.93 1014 10 16 0.00 0.00
2:53 pm 14:53 Partly Cloudy 63 17.2 24 -4.4 23 23 NW 9 15 29.92 1013 10 16 0.00 0.00
3:53 pm 15:53 Cloudy 61 16.1 25 -3.9 25 25 NW 8 13 29.93 1014 10 16 0.00 0.00
4:53 pm 16:53 Cloudy 60 15.6 27 -2.8 28 28 NW 13 20 29.94 1014 10 16 0.00 0.00
5:53 pm 17:53 Cloudy 58 14.4 24 -4.4 27 27 N 10 17 29.96 1014 10 16 0.00 0.00
6:14 pm 18:14 Cloudy 56 13.3 28 -2.2 34 34 NE 13 20 29.97 1015 10 16 0.00 0.00
6:53 pm 18:53 Cloudy 54 12.2 30 -1.1 40 40 E 8 13 29.96 1015 10 16 0.00 0.00
7:53 pm 19:53 Mostly Clear 53 11.7 30 -1.1 41 41 N 8 13 29.98 1015 10 16 0.00 0.00
8:53 pm 20:53 Clear 49 9.4 30 -1.1 48 48 N 6 9 29.99 1016 10 16 0.00 0.00
9:53 pm 21:53 Clear 49 9.4 29 -1.7 46 46 N 5 7 30.00 1016 8 13 0.00 0.00
10:53 pm 22:53 Clear 49 9.4 25 -3.9 39 39 N 8 13 30.01 1016 10 16 0.00 0.00
11:53 pm 23:53 Clear 49 9.4 21 -6.1 33 33 N 9 15 30.01 1016 10 16 0.00 0.00

Powered by AerisWeather